This demonstration page uses our WeatherBlox Daily Observations layout. Learn more.

Left ArrowRight Arrow

Hourly Observations for October 13, 2021

Temp ( °F °C ) Dew Point ( °F °C ) Humidity (%) Winds ( mph kmh ) Pressure ( in mb ) Visibility ( mi km ) Precip ( " mm )
12:03 am 00:03 Cloudy with Strong Thunderstorms 61 16 54 12 77 77 WSW 22 35 29.63 1003 8 13 0.05 1.27
12:17 am 00:17 Cloudy with Strong Thunderstorms 55 13 54 12 94 94 S 9 15 29.64 1004 5 8 0.33 8.38
12:49 am 00:49 Cloudy with Rain 55 13 54 12 94 94 E 13 20 29.60 1002 8 13 N/A
12:56 am 00:56 Cloudy with Nearby Thunderstorms 55 12.8 54 12.2 96 96 E 14 22 29.57 1001 10 16 0.43 10.92
1:28 am 01:28 Cloudy with Nearby Thunderstorms 55 13 55 13 100 100 ESE 22 35 29.51 999 10 16 0.09 2.29
1:49 am 01:49 Cloudy with Light Rain 57 14 55 13 94 94 ESE 18 30 29.53 1000 10 16 0.13 3.30
1:56 am 01:56 Cloudy with Nearby Thunderstorms 57 13.9 55 12.8 93 93 SE 16 26 29.52 1000 10 16 0.13 3.30
2:16 am 02:16 Cloudy with Light Rain 57 14 55 13 94 94 SSE 12 19 29.52 1000 10 16 0.03 0.76
2:49 am 02:49 Cloudy 55 13 55 13 100 100 SE 10 17 29.49 999 10 16 N/A
2:56 am 02:56 Cloudy with Light Rain 56 13.3 55 12.8 97 97 SE 10 17 29.49 999 10 16 0.03 0.76
3:03 am 03:03 Mostly Cloudy with Light Rain 55 13 55 13 100 100 SSE 12 19 29.50 999 10 16 0.00 0.00
3:53 am 03:53 Mostly Cloudy 55 13 54 12 94 94 SE 14 22 29.45 997 10 16 N/A
3:56 am 03:56 Mostly Cloudy 56 13.3 54 12.2 93 93 ESE 15 24 29.41 996 10 16 0.00 0.00
4:56 am 04:56 Cloudy 57 13.9 56 13.3 96 96 S 22 35 29.40 996 10 16 N/A
5:41 am 05:41 Cloudy with Light Rain 57 14 55 13 94 94 SSW 21 33 29.46 998 8 13 0.00 0.00
5:56 am 05:56 Cloudy with Light Rain 57 13.9 56 13.3 96 96 SSW 21 33 29.44 997 10 16 0.00 0.00
6:05 am 06:05 Cloudy 57 14 54 12 88 88 SW 23 37 29.45 997 10 16 N/A
6:15 am 06:15 Cloudy 55 13 54 12 94 94 SW 18 30 29.47 998 10 16 N/A
6:23 am 06:23 Mostly Cloudy 55 13 52 11 88 88 SW 25 41 29.47 998 10 16 N/A
6:37 am 06:37 Mostly Cloudy 54 12 46 8 77 77 WSW 18 30 29.48 998 10 16 N/A
6:56 am 06:56 Mostly Cloudy 50 10 45 7.2 83 83 WSW 17 28 29.49 999 10 16 N/A
7:56 am 07:56 Sunny 45 7.2 40 4.4 83 83 WSW 17 28 29.54 1000 10 16 N/A
8:56 am 08:56 Sunny 45 7.2 36 2.2 71 71 W 22 35 29.57 1001 10 16 N/A
9:56 am 09:56 Sunny 47 8.3 34 1.1 61 61 WSW 21 33 29.59 1002 10 16 N/A
10:56 am 10:56 Sunny 50 10 34 1.1 54 54 W 26 43 29.59 1002 10 16 N/A
11:56 am 11:56 Sunny 52 11.1 33 0.6 49 49 W 30 48 29.59 1002 10 16 N/A
12:56 pm 12:56 Sunny 55 12.8 34 1.1 45 45 W 29 46 29.62 1003 10 16 N/A
1:56 pm 13:56 Sunny 58 14.4 33 0.6 39 39 W 30 48 29.63 1003 10 16 N/A
2:56 pm 14:56 Sunny 59 15 32 undefined 36 36 W 31 50 29.64 1004 10 16 N/A
3:56 pm 15:56 Sunny 60 15.6 31 -0.6 33 33 W 25 41 29.66 1005 10 16 N/A
4:56 pm 16:56 Sunny 60 15.6 31 -0.6 33 33 W 22 35 29.68 1005 10 16 N/A
5:56 pm 17:56 Sunny 59 15 32 undefined 36 36 W 16 26 29.70 1006 10 16 N/A
6:56 pm 18:56 Sunny 55 12.8 31 -0.6 40 40 W 12 19 29.75 1008 10 16 N/A
7:56 pm 19:56 Clear 52 11.1 32 undefined 47 47 W 10 17 29.80 1009 10 16 N/A
8:56 pm 20:56 Clear 50 10 33 0.6 52 52 WSW 12 19 29.84 1011 10 16 N/A
9:56 pm 21:56 Clear 50 10 30 -1.1 46 46 W 13 20 29.87 1011 10 16 N/A
10:56 pm 22:56 Clear 48 8.9 30 -1.1 50 50 W 10 17 29.90 1013 10 16 N/A
11:56 pm 23:56 Clear 45 7.2 31 -0.6 58 58 WNW 8 13 29.89 1012 10 16 N/A

Powered by AerisWeather